• In Netherlands
  • List of Countries
  • For 7 days
  • Water Temperature
  • Satellite Maps
  • Weather Map
  • Weather Widgets
  • user-avatar
    Login

    Hourly Weather La Rioja

    Today, 27 May, Saturday

    Time Temperature Precipitation Wind Pressure Humidity
    00:00 +13°C° 0 mm 2 mps 722 mmHg 61%
    01:00 +12°C° 0 mm 1 mps 722 mmHg 61%
    02:00 +11°C° 0 mm 1 mps 722 mmHg 62%
    03:00 +11°C° 0 mm 1 mps 722 mmHg 62%
    04:00 +10°C° 0 mm 1 mps 721 mmHg 63%
    05:00 +10°C° 0 mm 1 mps 721 mmHg 63%
    06:00 +10°C° 0 mm 1 mps 722 mmHg 62%
    07:00 +10°C° 0 mm 1 mps 722 mmHg 61%
    08:00 +10°C° 0 mm 1 mps 722 mmHg 59%
    09:00 +12°C° 0 mm 2 mps 722 mmHg 52%
    10:00 +14°C° 0 mm 2 mps 722 mmHg 45%
    11:00 +15°C° 0 mm 2 mps 722 mmHg 38%
    12:00 +16°C° 0 mm 3 mps 721 mmHg 36%
    13:00 +17°C° 0 mm 3 mps 721 mmHg 34%
    14:00 +17°C° 0 mm 3 mps 720 mmHg 32%
    15:00 +17°C° 0 mm 3 mps 720 mmHg 33%
    16:00 +16°C° 0 mm 3 mps 720 mmHg 34%
    17:00 +16°C° 0 mm 3 mps 719 mmHg 35%
    18:00 +13°C° 0 mm 3 mps 720 mmHg 39%
    19:00 +13°C° 0 mm 2 mps 720 mmHg 43%
    20:00 +12°C° 0 mm 2 mps 720 mmHg 47%
    21:00 +10°C° 0 mm 2 mps 720 mmHg 49%
    22:00 +10°C° 0 mm 2 mps 721 mmHg 50%
    23:00 +9°C° 0 mm 2 mps 721 mmHg 52%

    Tomorrow, 28 May, Sunday

    Time Temperature Precipitation Wind Pressure Humidity
    00:00 +10°C° 0 mm 1 mps 721 mmHg 54%
    01:00 +10°C° 0 mm 1 mps 720 mmHg 56%
    02:00 +9°C° 0 mm 1 mps 720 mmHg 59%
    03:00 +9°C° 0 mm 1 mps 720 mmHg 61%
    04:00 +8°C° 0 mm 1 mps 719 mmHg 63%
    05:00 +8°C° 0 mm 1 mps 719 mmHg 65%
    06:00 +8°C° 0 mm 1 mps 719 mmHg 63%
    07:00 +9°C° 0 mm 1 mps 719 mmHg 62%
    08:00 +9°C° 0 mm 1 mps 719 mmHg 61%
    09:00 +10°C° 0 mm 2 mps 719 mmHg 55%
    10:00 +13°C° 0 mm 2 mps 719 mmHg 50%
    11:00 +15°C° 0 mm 2 mps 719 mmHg 44%
    12:00 +16°C° 0 mm 2 mps 718 mmHg 43%
    13:00 +17°C° 0 mm 2 mps 717 mmHg 42%
    14:00 +18°C° 0 mm 3 mps 716 mmHg 41%
    15:00 +17°C° 0 mm 2 mps 716 mmHg 44%
    16:00 +17°C° 0 mm 2 mps 716 mmHg 47%
    17:00 +16°C° 0 mm 2 mps 716 mmHg 50%
    18:00 +15°C° 0 mm 2 mps 716 mmHg 57%
    19:00 +14°C° 0 mm 2 mps 716 mmHg 64%
    20:00 +12°C° 0 mm 1 mps 717 mmHg 72%
    21:00 +12°C° 0 mm 1 mps 717 mmHg 75%
    22:00 +12°C° 0 mm 1 mps 717 mmHg 78%
    23:00 +12°C° 0 mm 1 mps 718 mmHg 81%

    Day after tomorrow, 29 May, Monday

    Time Temperature Precipitation Wind Pressure Humidity
    00:00 +12°C° 0 mm 1 mps 718 mmHg 82%
    01:00 +12°C° 0 mm 2 mps 717 mmHg 84%
    02:00 +12°C° 0 mm 2 mps 717 mmHg 85%
    03:00 +12°C° 0 mm 2 mps 717 mmHg 84%
    04:00 +12°C° 0 mm 2 mps 717 mmHg 84%
    05:00 +12°C° 0 mm 2 mps 717 mmHg 84%
    06:00 +12°C° 0.1 mm 2 mps 718 mmHg 84%
    07:00 +12°C° 0.1 mm 2 mps 718 mmHg 84%
    08:00 +13°C° 0.1 mm 2 mps 719 mmHg 84%
    09:00 +14°C° 0.1 mm 2 mps 719 mmHg 80%
    10:00 +15°C° 0.1 mm 2 mps 719 mmHg 76%
    11:00 +16°C° 0.1 mm 2 mps 719 mmHg 73%
    12:00 +16°C° 0 mm 2 mps 718 mmHg 71%
    13:00 +17°C° 0 mm 3 mps 718 mmHg 69%
    14:00 +17°C° 0 mm 3 mps 717 mmHg 68%
    15:00 +17°C° 0 mm 3 mps 717 mmHg 71%
    16:00 +16°C° 0 mm 3 mps 717 mmHg 75%
    17:00 +16°C° 0 mm 3 mps 717 mmHg 79%
    18:00 +14°C° 0.1 mm 3 mps 718 mmHg 82%
    19:00 +15°C° 0.1 mm 2 mps 719 mmHg 85%
    20:00 +15°C° 0.1 mm 2 mps 719 mmHg 88%
    21:00 +15°C° 0.1 mm 2 mps 720 mmHg 89%
    22:00 +14°C° 0.1 mm 2 mps 720 mmHg 90%
    23:00 +14°C° 0.1 mm 2 mps 720 mmHg 91%

    30 May, Tuesday

    Time Temperature Precipitation Wind Pressure Humidity
    00:00 +14°C° 0.1 mm 2 mps 720 mmHg 91%
    01:00 +14°C° 0.1 mm 2 mps 720 mmHg 92%
    02:00 +14°C° 0.1 mm 2 mps 720 mmHg 92%
    03:00 +14°C° 0.1 mm 2 mps 720 mmHg 92%
    04:00 +14°C° 0.1 mm 2 mps 719 mmHg 93%
    05:00 +14°C° 0.1 mm 2 mps 719 mmHg 93%
    06:00 +14°C° 0.1 mm 2 mps 720 mmHg 93%
    07:00 +14°C° 0.1 mm 2 mps 720 mmHg 92%
    08:00 +14°C° 0.1 mm 2 mps 721 mmHg 92%
    09:00 +14°C° 0.1 mm 2 mps 721 mmHg 88%
    10:00 +15°C° 0.1 mm 2 mps 721 mmHg 85%
    11:00 +15°C° 0.1 mm 2 mps 721 mmHg 81%
    12:00 +16°C° 0.2 mm 2 mps 720 mmHg 80%
    13:00 +16°C° 0.2 mm 3 mps 720 mmHg 79%
    14:00 +16°C° 0.2 mm 3 mps 719 mmHg 77%
    15:00 +16°C° 0.1 mm 3 mps 719 mmHg 79%
    16:00 +16°C° 0.1 mm 3 mps 719 mmHg 81%
    17:00 +14°C° 0.1 mm 3 mps 719 mmHg 83%
    18:00 +15°C° 0 mm 2 mps 720 mmHg 85%
    19:00 +14°C° 0 mm 1 mps 721 mmHg 88%
    20:00 +14°C° 0 mm 1 mps 721 mmHg 90%
    21:00 +13°C° 0 mm 1 mps 721 mmHg 90%
    22:00 +13°C° 0 mm 1 mps 721 mmHg 90%
    23:00 +12°C° 0 mm 1 mps 721 mmHg 90%

    31 May, Wednesday

    Time Temperature Precipitation Wind Pressure Humidity
    00:00 +12°C° 0 mm 1 mps 721 mmHg 90%
    01:00 +12°C° 0 mm 1 mps 720 mmHg 89%
    02:00 +12°C° 0 mm 1 mps 720 mmHg 88%
    03:00 +11°C° 0 mm 1 mps 720 mmHg 87%
    04:00 +11°C° 0 mm 1 mps 720 mmHg 87%
    05:00 +11°C° 0 mm 1 mps 719 mmHg 86%
    06:00 +11°C° 0 mm 1 mps 720 mmHg 84%
    07:00 +11°C° 0 mm 1 mps 720 mmHg 81%
    08:00 +12°C° 0 mm 1 mps 721 mmHg 79%
    09:00 +14°C° 0 mm 1 mps 721 mmHg 71%
    10:00 +16°C° 0 mm 1 mps 721 mmHg 62%
    11:00 +19°C° 0 mm 1 mps 721 mmHg 54%
    12:00 +20°C° 0 mm 1 mps 720 mmHg 51%
    13:00 +19°C° 0 mm 2 mps 719 mmHg 48%
    14:00 +20°C° 0 mm 2 mps 719 mmHg 45%
    15:00 +20°C° 0 mm 2 mps 718 mmHg 48%
    16:00 +19°C° 0 mm 2 mps 718 mmHg 51%
    17:00 +18°C° 0 mm 2 mps 718 mmHg 54%
    18:00 +18°C° 0 mm 1 mps 718 mmHg 60%
    19:00 +16°C° 0 mm 1 mps 718 mmHg 67%
    20:00 +14°C° 0 mm 1 mps 719 mmHg 73%
    21:00 +14°C° 0 mm 1 mps 718 mmHg 74%
    22:00 +13°C° 0 mm 1 mps 718 mmHg 74%
    23:00 +13°C° 0 mm 1 mps 718 mmHg 75%

    1 June, Thursday

    Time Temperature Precipitation Wind Pressure Humidity
    00:00 +13°C° 0 mm 1 mps 718 mmHg 76%
    01:00 +12°C° 0 mm 1 mps 717 mmHg 77%
    02:00 +12°C° 0 mm 1 mps 716 mmHg 78%
    03:00 +12°C° 0 mm 1 mps 716 mmHg 79%
    04:00 +12°C° 0 mm 1 mps 716 mmHg 79%
    05:00 +11°C° 0 mm 1 mps 715 mmHg 80%
    06:00 +12°C° 0 mm 1 mps 715 mmHg 79%
    07:00 +12°C° 0 mm 2 mps 716 mmHg 79%
    08:00 +12°C° 0 mm 2 mps 716 mmHg 78%
    09:00 +14°C° 0 mm 2 mps 716 mmHg 72%
    10:00 +16°C° 0 mm 2 mps 716 mmHg 66%
    11:00 +18°C° 0 mm 2 mps 716 mmHg 60%
    12:00 +19°C° 0 mm 2 mps 715 mmHg 58%
    13:00 +19°C° 0 mm 2 mps 714 mmHg 55%
    14:00 +20°C° 0 mm 2 mps 713 mmHg 52%
    15:00 +20°C° 0 mm 2 mps 713 mmHg 54%
    16:00 +19°C° 0 mm 2 mps 713 mmHg 56%
    17:00 +19°C° 0 mm 2 mps 713 mmHg 59%
    18:00 +17°C° 0 mm 2 mps 714 mmHg 64%
    19:00 +16°C° 0 mm 2 mps 714 mmHg 68%
    20:00 +15°C° 0 mm 2 mps 715 mmHg 73%
    21:00 +15°C° 0 mm 2 mps 715 mmHg 74%
    22:00 +14°C° 0 mm 2 mps 715 mmHg 75%
    23:00 +14°C° 0 mm 2 mps 715 mmHg 76%
    Show more